User: anonymous
Location: Unspecified
(0.0000°N, 0.0000°E)
Time: 13:41:41
(UTC+00:00)
Language:

AEHF 1 (USA 214) - Orbit

View from above orbital plane
View from above orbital plane
View from above satellite
View from above satellite

Ground track
Ground track

The orbit data is extracted from the following two-line orbital elements,

1 36868U 10039A   14242.98473446 0.00000000  00000-0  00000-0 0    05
2 36868   2.1723 265.6011 0004226 152.7209 207.3167  1.00270000    05
Epoch (UTC): 30 August 2014 23:38:01
Eccentricity: 0.0004226
inclination: 2.1723°
perigee height: 35769 km
apogee height: 35804 km
right ascension of ascending node: 265.6011°
argument of perigee: 152.7209°
revolutions per day: 1.00270000
mean anomaly at epoch: 207.3167°
orbit number at epoch: 0

The dashed part of the orbit path shows where the satellite is in the earth's shadow,  

DLR